| time (UTC) | temp F | wind direction | speed knots | gust knots | rain 1hr in | rain 24hr in | rain mn in | humidity % | barometer mb |
| 20260504034803 | 67 | 170 | 1.7 | 3.5 | 0.00 | 0.00 | 0.00 | 40 | 1013.7 |
| 20260504034300 | 68 | 49 | 1.7 | 2.6 | 0.00 | 0.00 | 0.00 | 40 | 1013.6 |
| 20260504033757 | 67 | 242 | 7.8 | 7.8 | 0.00 | 0.00 | 0.00 | 41 | 1013.4 |
| 20260504033255 | 67 | 145 | 2.6 | 5.2 | 0.00 | 0.00 | 0.00 | 41 | 1013.5 |
| 20260504032751 | 68 | 68 | 0.0 | 5.2 | 0.00 | 0.00 | 0.00 | 41 | 1013.2 |
| 20260504032249 | 68 | 247 | 11.3 | 12.2 | 0.00 | 0.00 | 0.00 | 41 | 1013.1 |
| 20260504031745 | 68 | 263 | 10.4 | 14.8 | 0.00 | 0.00 | 0.00 | 40 | 1012.8 |
| 20260504031243 | 68 | 308 | 7.0 | 13.9 | 0.00 | 0.00 | 0.00 | 40 | 1012.7 |
| 20260504030738 | 68 | 282 | 7.0 | 20.0 | 0.00 | 0.00 | 0.00 | 42 | 1012.4 |
| 20260504030236 | 68 | 255 | 12.2 | 19.1 | 0.00 | 0.00 | 0.00 | 41 | 1012.5 |
| 20260504025732 | 68 | 253 | 12.2 | 18.2 | 0.00 | 0.00 | 0.00 | 42 | 1012.5 |
| 20260504025229 | 69 | 269 | 7.8 | 17.4 | 0.00 | 0.00 | 0.00 | 40 | 1012.4 |
| 20260504024726 | 69 | 291 | 7.0 | 16.5 | 0.00 | 0.00 | 0.00 | 39 | 1012.5 |
| 20260504024223 | 69 | 280 | 5.2 | 15.6 | 0.00 | 0.00 | 0.00 | 42 | 1012.7 |
| 20260504023720 | 69 | 268 | 6.1 | 13.0 | 0.00 | 0.00 | 0.00 | 42 | 1012.4 |
| 20260504023215 | 69 | 267 | 4.3 | 20.9 | 0.00 | 0.00 | 0.00 | 42 | 1012.4 |
| 20260504022712 | 70 | 262 | 6.1 | 13.9 | 0.00 | 0.00 | 0.00 | 39 | 1012.2 |
| 20260504022208 | 71 | 249 | 7.0 | 13.9 | 0.00 | 0.00 | 0.00 | 40 | 1012.1 |
| 20260504021706 | 72 | 242 | 7.8 | 13.0 | 0.00 | 0.00 | 0.00 | 37 | 1012.0 |
| 20260504021202 | 73 | 315 | 6.1 | 11.3 | 0.00 | 0.00 | 0.00 | 34 | 1011.8 |
| 20260504020659 | 73 | 312 | 8.7 | 15.6 | 0.00 | 0.00 | 0.00 | 36 | 1011.5 |
| 20260504020155 | 74 | 258 | 5.2 | 11.3 | 0.00 | 0.00 | 0.00 | 36 | 1011.2 |
| 20260504015652 | 74 | 261 | 7.8 | 12.2 | 0.00 | 0.00 | 0.00 | 36 | 1011.1 |
| 20260504015148 | 74 | 257 | 7.0 | 16.5 | 0.00 | 0.00 | 0.00 | 35 | 1011.2 |
| 20260504014644 | 75 | 247 | 9.6 | 10.4 | 0.00 | 0.00 | 0.00 | 34 | 1010.8 |
| 20260504014142 | 75 | 281 | 5.2 | 14.8 | 0.00 | 0.00 | 0.00 | 35 | 1010.8 |
| 20260504013639 | 75 | 259 | 8.7 | 10.4 | 0.00 | 0.00 | 0.00 | 35 | 1010.9 |
| 20260504013136 | 76 | 256 | 8.7 | 15.6 | 0.00 | 0.00 | 0.00 | 32 | 1010.8 |
| 20260504012633 | 77 | 245 | 5.2 | 9.6 | 0.00 | 0.00 | 0.00 | 31 | 1010.9 |
| 20260504012131 | 78 | 318 | 4.3 | 11.3 | 0.00 | 0.00 | 0.00 | 29 | 1010.7 |
| 20260504011622 | 79 | 32 | 1.7 | 7.0 | 0.00 | 0.00 | 0.00 | 27 | 1011.0 |
| 20260504011119 | 80 | 47 | 2.6 | 7.8 | 0.00 | 0.00 | 0.00 | 21 | 1010.6 |
| 20260504010614 | 81 | 253 | 7.8 | 11.3 | 0.00 | 0.00 | 0.00 | 22 | 1010.6 |
| 20260504010111 | 81 | 244 | 4.3 | 5.2 | 0.00 | 0.00 | 0.00 | 24 | 1010.7 |
| 20260504005608 | 81 | 246 | 7.0 | 9.6 | 0.00 | 0.00 | 0.00 | 27 | 1010.6 |
| 20260504005105 | 83 | 34 | 0.0 | 4.3 | 0.00 | 0.00 | 0.00 | 21 | 1010.3 |
| 20260504004603 | 82 | 238 | 5.2 | 8.7 | 0.00 | 0.00 | 0.00 | 23 | 1010.4 |
| 20260504004059 | 83 | 273 | 3.5 | 7.8 | 0.00 | 0.00 | 0.00 | 22 | 1010.4 |
| 20260504003554 | 86 | 330 | 6.1 | 7.0 | 0.00 | 0.00 | 0.00 | 17 | 1010.3 |
| 20260504003051 | 85 | 320 | 1.7 | 7.8 | 0.00 | 0.00 | 0.00 | 16 | 1010.1 |
| 20260504002548 | 84 | 230 | 8.7 | 19.1 | 0.00 | 0.00 | 0.00 | 21 | 1010.3 |
| 20260504002046 | 84 | 315 | 6.1 | 14.8 | 0.00 | 0.00 | 0.00 | 23 | 1010.2 |
| 20260504001544 | 83 | 262 | 14.8 | 21.7 | 0.00 | 0.00 | 0.00 | 22 | 1009.9 |
| 20260504001039 | 85 | 247 | 11.3 | 14.8 | 0.00 | 0.00 | 0.00 | 22 | 1010.3 |
| 20260504000537 | 85 | 271 | 8.7 | 16.5 | 0.00 | 0.00 | 0.00 | 21 | 1010.2 |
| 20260504000034 | 85 | 249 | 13.9 | 19.1 | 0.00 | 0.00 | 0.00 | 21 | 1010.2 |
| 20260503235532 | 86 | 242 | 12.2 | 14.8 | 0.00 | 0.00 | 0.00 | 20 | 1010.0 |
| 20260503235029 | 87 | 243 | 19.1 | 19.1 | 0.00 | 0.00 | 0.00 | 20 | 1010.0 |
| 20260503234526 | 87 | 250 | 11.3 | 17.4 | 0.00 | 0.00 | 0.00 | 20 | 1010.2 |
| 20260503234025 | 87 | 238 | 13.9 | 25.2 | 0.00 | 0.00 | 0.00 | 20 | 1009.8 |
| 20260503233520 | 86 | 247 | 14.8 | 19.1 | 0.00 | 0.00 | 0.00 | 22 | 1009.9 |
| 20260503233017 | 86 | 245 | 7.8 | 22.6 | 0.00 | 0.00 | 0.00 | 22 | 1009.9 |
| 20260503232514 | 85 | 246 | 13.0 | 20.9 | 0.00 | 0.00 | 0.00 | 23 | 1010.0 |
| 20260503232011 | 86 | 234 | 13.0 | 20.0 | 0.00 | 0.00 | 0.00 | 23 | 1010.2 |
| 20260503231509 | 87 | 255 | 13.9 | 17.4 | 0.00 | 0.00 | 0.00 | 23 | 1010.3 |
| 20260503231006 | 88 | 213 | 7.8 | 20.0 | 0.00 | 0.00 | 0.00 | 21 | 1010.3 |
| 20260503230502 | 88 | 236 | 7.8 | 11.3 | 0.00 | 0.00 | 0.00 | 21 | 1010.3 |
| 20260503230000 | 87 | 247 | 8.7 | 22.6 | 0.00 | 0.00 | 0.00 | 21 | 1010.2 |
| 20260503225456 | 88 | 232 | 9.6 | 15.6 | 0.00 | 0.00 | 0.00 | 22 | 1010.1 |
| 20260503224952 | 87 | 235 | 8.7 | 18.2 | 0.00 | 0.00 | 0.00 | 22 | 1010.3 |
| 20260503224449 | 87 | 235 | 7.8 | 16.5 | 0.00 | 0.00 | 0.00 | 23 | 1010.2 |
| 20260503223947 | 87 | 255 | 11.3 | 16.5 | 0.00 | 0.00 | 0.00 | 23 | 1010.2 |
| 20260503223445 | 88 | 244 | 15.6 | 20.9 | 0.00 | 0.00 | 0.00 | 23 | 1009.9 |
| 20260503222940 | 87 | 242 | 16.5 | 20.9 | 0.00 | 0.00 | 0.00 | 22 | 1010.2 |
| 20260503222439 | 89 | 234 | 15.6 | 19.1 | 0.00 | 0.00 | 0.00 | 22 | 1010.1 |
| 20260503221936 | 87 | 229 | 7.8 | 22.6 | 0.00 | 0.00 | 0.00 | 22 | 1009.8 |
| 20260503221434 | 87 | 231 | 20.0 | 24.3 | 0.00 | 0.00 | 0.00 | 22 | 1010.0 |
| 20260503220931 | 87 | 242 | 18.2 | 25.2 | 0.00 | 0.00 | 0.00 | 23 | 1010.1 |
| 20260503220427 | 88 | 230 | 22.6 | 27.8 | 0.00 | 0.00 | 0.00 | 22 | 1010.2 |
| 20260503215924 | 89 | 240 | 10.4 | 16.5 | 0.00 | 0.00 | 0.00 | 21 | 1009.9 |
| 20260503215421 | 87 | 246 | 13.9 | 26.9 | 0.00 | 0.00 | 0.00 | 21 | 1010.1 |
| 20260503214919 | 89 | 237 | 12.2 | 21.7 | 0.00 | 0.00 | 0.00 | 22 | 1010.5 |
| 20260503214416 | 89 | 234 | 13.0 | 21.7 | 0.00 | 0.00 | 0.00 | 20 | 1010.5 |
| 20260503213914 | 88 | 227 | 5.2 | 23.5 | 0.00 | 0.00 | 0.00 | 20 | 1010.5 |
| 20260503213411 | 89 | 253 | 14.8 | 25.2 | 0.00 | 0.00 | 0.00 | 20 | 1010.3 |
| 20260503212908 | 90 | 227 | 5.2 | 17.4 | 0.00 | 0.00 | 0.00 | 19 | 1010.2 |
| 20260503212406 | 90 | 230 | 9.6 | 22.6 | 0.00 | 0.00 | 0.00 | 19 | 1010.4 |
| 20260503211902 | 89 | 231 | 13.9 | 25.2 | 0.00 | 0.00 | 0.00 | 18 | 1010.3 |
| 20260503211359 | 90 | 224 | 13.0 | 22.6 | 0.00 | 0.00 | 0.00 | 18 | 1010.4 |
| 20260503210854 | 90 | 221 | 9.6 | 23.5 | 0.00 | 0.00 | 0.00 | 19 | 1010.5 |
| 20260503210352 | 89 | 240 | 20.9 | 28.7 | 0.00 | 0.00 | 0.00 | 19 | 1010.5 |
| 20260503205847 | 90 | 226 | 11.3 | 20.9 | 0.00 | 0.00 | 0.00 | 19 | 1010.4 |
| 20260503205344 | 89 | 228 | 11.3 | 23.5 | 0.00 | 0.00 | 0.00 | 19 | 1010.4 |
| 20260503204840 | 89 | 230 | 17.4 | 22.6 | 0.00 | 0.00 | 0.00 | 20 | 1010.3 |
| 20260503204337 | 88 | 229 | 23.5 | 26.1 | 0.00 | 0.00 | 0.00 | 21 | 1010.5 |
| 20260503203835 | 88 | 253 | 13.0 | 25.2 | 0.00 | 0.00 | 0.00 | 21 | 1010.4 |
| 20260503203332 | 88 | 242 | 19.1 | 30.4 | 0.00 | 0.00 | 0.00 | 22 | 1010.5 |
| 20260503202829 | 88 | 240 | 18.2 | 26.1 | 0.00 | 0.00 | 0.00 | 22 | 1010.1 |
| 20260503202327 | 90 | 246 | 13.0 | 22.6 | 0.00 | 0.00 | 0.00 | 20 | 1010.4 |
| 20260503201825 | 92 | 253 | 13.9 | 20.9 | 0.00 | 0.00 | 0.00 | 20 | 1010.6 |
| 20260503201321 | 91 | 232 | 13.9 | 16.5 | 0.00 | 0.00 | 0.00 | 19 | 1010.5 |
| 20260503200819 | 90 | 228 | 13.9 | 21.7 | 0.00 | 0.00 | 0.00 | 20 | 1010.5 |
| 20260503200315 | 90 | 264 | 14.8 | 20.9 | 0.00 | 0.00 | 0.00 | 19 | 1010.6 |
| 20260503195812 | 92 | 251 | 8.7 | 14.8 | 0.00 | 0.00 | 0.00 | 17 | 1010.7 |
| 20260503195309 | 91 | 245 | 9.6 | 15.6 | 0.00 | 0.00 | 0.00 | 18 | 1010.8 |
| 20260503194806 | 92 | 258 | 10.4 | 16.5 | 0.00 | 0.00 | 0.00 | 17 | 1010.8 |
| 20260503194302 | 91 | 244 | 9.6 | 15.6 | 0.00 | 0.00 | 0.00 | 18 | 1011.1 |
| 20260503193758 | 92 | 254 | 13.0 | 19.1 | 0.00 | 0.00 | 0.00 | 18 | 1010.9 |
| 20260503193254 | 91 | 232 | 11.3 | 18.2 | 0.00 | 0.00 | 0.00 | 19 | 1011.0 |
| 20260503192750 | 92 | 256 | 9.6 | 15.6 | 0.00 | 0.00 | 0.00 | 18 | 1010.9 |
| 20260503192245 | 91 | 263 | 5.2 | 13.0 | 0.00 | 0.00 | 0.00 | 18 | 1011.1 |
| 20260503191743 | 92 | 231 | 8.7 | 15.6 | 0.00 | 0.00 | 0.00 | 17 | 1011.2 |
| 20260503191240 | 92 | 265 | 9.6 | 14.8 | 0.00 | 0.00 | 0.00 | 18 | 1011.2 |
| 20260503190736 | 91 | 234 | 11.3 | 16.5 | 0.00 | 0.00 | 0.00 | 18 | 1011.2 |
| 20260503190233 | 91 | 260 | 5.2 | 8.7 | 0.00 | 0.00 | 0.00 | 18 | 1011.4 |
| 20260503185731 | 91 | 259 | 7.8 | 13.0 | 0.00 | 0.00 | 0.00 | 18 | 1011.5 |
| 20260503185226 | 92 | 257 | 11.3 | 16.5 | 0.00 | 0.00 | 0.00 | 18 | 1011.6 |
| 20260503184721 | 91 | 244 | 11.3 | 18.2 | 0.00 | 0.00 | 0.00 | 18 | 1011.7 |
| 20260503184217 | 92 | 190 | 3.5 | 13.0 | 0.00 | 0.00 | 0.00 | 18 | 1011.7 |
| 20260503183714 | 91 | 236 | 11.3 | 15.6 | 0.00 | 0.00 | 0.00 | 18 | 1011.8 |
| 20260503183211 | 90 | 245 | 7.8 | 16.5 | 0.00 | 0.00 | 0.00 | 18 | 1011.7 |
| 20260503182709 | 91 | 246 | 7.8 | 14.8 | 0.00 | 0.00 | 0.00 | 17 | 1012.0 |
| 20260503182208 | 91 | 240 | 8.7 | 19.1 | 0.00 | 0.00 | 0.00 | 18 | 1012.0 |
| 20260503181703 | 91 | 248 | 7.8 | 19.1 | 0.00 | 0.00 | 0.00 | 17 | 1012.1 |
| 20260503181200 | 91 | 245 | 10.4 | 13.0 | 0.00 | 0.00 | 0.00 | 17 | 1012.1 |
| 20260503180657 | 91 | 252 | 7.0 | 11.3 | 0.00 | 0.00 | 0.00 | 18 | 1012.1 |
| 20260503180156 | 91 | 235 | 8.7 | 13.0 | 0.00 | 0.00 | 0.00 | 18 | 1012.4 |
| 20260503175652 | 91 | 243 | 4.3 | 4.3 | 0.00 | 0.00 | 0.00 | 16 | 1012.3 |
| 20260503175150 | 91 | 236 | 1.7 | 7.0 | 0.00 | 0.00 | 0.00 | 17 | 1012.3 |
| 20260503174646 | 90 | 233 | 8.7 | 11.3 | 0.00 | 0.00 | 0.00 | 16 | 1012.5 |
| 20260503174143 | 91 | 220 | 1.7 | 13.9 | 0.00 | 0.00 | 0.00 | 17 | 1012.6 |
| 20260503173638 | 90 | 200 | 1.7 | 13.0 | 0.00 | 0.00 | 0.00 | 17 | 1012.5 |
| 20260503173130 | 91 | 264 | 5.2 | 10.4 | 0.00 | 0.00 | 0.00 | 16 | 1012.3 |
| 20260503172626 | 89 | 257 | 10.4 | 13.0 | 0.00 | 0.00 | 0.00 | 18 | 1012.5 |
| 20260503172123 | 89 | 253 | 3.5 | 6.1 | 0.00 | 0.00 | 0.00 | 17 | 1012.5 |
| 20260503171620 | 91 | 233 | 8.7 | 13.0 | 0.00 | 0.00 | 0.00 | 16 | 1012.7 |
| 20260503171117 | 89 | 236 | 7.8 | 15.6 | 0.00 | 0.00 | 0.00 | 16 | 1012.4 |
| 20260503170614 | 90 | 207 | 4.3 | 7.0 | 0.00 | 0.00 | 0.00 | 16 | 1012.6 |
| 20260503170110 | 90 | 231 | 7.0 | 10.4 | 0.00 | 0.00 | 0.00 | 16 | 1012.5 |
| 20260503151006 | 84 | 45 | 1.7 | 1.7 | 0.00 | 0.00 | 0.00 | 18 | 1012.8 |
| 20260503150502 | 84 | 39 | 1.7 | 3.5 | 0.00 | 0.00 | 0.00 | 18 | 1012.9 |
| 20260503131349 | 69 | 17 | 1.7 | 2.6 | 0.00 | 0.00 | 0.00 | 24 | 1011.5 |
| 20260503130847 | 69 | 54 | 0.0 | 1.7 | 0.00 | 0.00 | 0.00 | 24 | 1011.5 |
| 20260503130344 | 68 | 271 | 1.7 | 2.6 | 0.00 | 0.00 | 0.00 | 24 | 1011.4 |
| 20260503110733 | 75 | 188 | 0.0 | 2.6 | 0.00 | 0.00 | 0.00 | 20 | 1011.4 |
| 20260503110230 | 74 | 191 | 0.0 | 2.6 | 0.00 | 0.00 | 0.00 | 21 | 1011.3 |
| 20260503100155 | 73 | 222 | 1.7 | 1.7 | 0.00 | 0.00 | 0.00 | 21 | 1011.4 |
| 20260503090114 | 77 | 76 | 0.0 | 0.9 | 0.00 | 0.00 | 0.00 | 19 | 1012.1 |
| 20260503081550 | 75 | 121 | 0.0 | 0.9 | 0.00 | 0.00 | 0.00 | 21 | 1012.8 |
| 20260503081048 | 75 | 236 | 0.0 | 1.7 | 0.00 | 0.00 | 0.00 | 21 | 1013.0 |
| 20260503080544 | 76 | 18 | 0.0 | 1.7 | 0.00 | 0.00 | 0.00 | 21 | 1012.8 |
| 20260503072517 | 78 | 10 | 1.7 | 1.7 | 0.00 | 0.00 | 0.00 | 22 | 1013.0 |
| 20260503072014 | 78 | 119 | 0.0 | 1.7 | 0.00 | 0.00 | 0.00 | 21 | 1013.2 |
| 20260503071511 | 77 | 125 | 0.0 | 0.9 | 0.00 | 0.00 | 0.00 | 22 | 1013.0 |
| 20260503071008 | 78 | 135 | 0.0 | 0.9 | 0.00 | 0.00 | 0.00 | 22 | 1013.2 |
| 20260503070504 | 77 | 125 | 0.0 | 1.7 | 0.00 | 0.00 | 0.00 | 23 | 1013.3 |
| 20260503054922 | 79 | 174 | 0.0 | 0.0 | 0.00 | 0.00 | 0.00 | 22 | 1013.4 |
| 20260503054419 | 79 | 89 | 0.0 | 1.7 | 0.00 | 0.00 | 0.00 | 22 | 1013.4 |
| 20260503053917 | 78 | 65 | 1.7 | 1.7 | 0.00 | 0.00 | 0.00 | 23 | 1013.5 |
| 20260503053414 | 79 | 323 | 0.9 | 1.7 | 0.00 | 0.00 | 0.00 | 22 | 1013.2 |
| 20260503052910 | 79 | 72 | 1.7 | 2.6 | 0.00 | 0.00 | 0.00 | 22 | 1013.4 |
| 20260503052408 | 79 | 284 | 0.0 | 0.0 | 0.00 | 0.00 | 0.00 | 22 | 1013.4 |
| 20260503051904 | 80 | 71 | 0.9 | 1.7 | 0.00 | 0.00 | 0.00 | 21 | 1013.2 |
| 20260503051400 | 80 | 315 | 0.0 | 2.6 | 0.00 | 0.00 | 0.00 | 22 | 1013.3 |
| 20260503050857 | 80 | 27 | 0.0 | 2.6 | 0.00 | 0.00 | 0.00 | 21 | 1013.3 |
| 20260503050353 | 80 | 264 | 0.9 | 1.7 | 0.00 | 0.00 | 0.00 | 22 | 1013.2 |
| 20260503045851 | 81 | 2 | 3.5 | 3.5 | 0.00 | 0.00 | 0.00 | 22 | 1013.2 |
| 20260503045349 | 82 | 294 | 0.0 | 1.7 | 0.00 | 0.00 | 0.00 | 21 | 1013.2 |
| 20260503044845 | 82 | 98 | 3.5 | 4.3 | 0.00 | 0.00 | 0.00 | 21 | 1013.1 |
| 20260503044342 | 83 | 80 | 2.6 | 3.5 | 0.00 | 0.00 | 0.00 | 19 | 1013.0 |
| 20260503043839 | 83 | 89 | 0.0 | 1.7 | 0.00 | 0.00 | 0.00 | 19 | 1012.9 |
| 20260503043336 | 83 | 119 | 1.7 | 3.5 | 0.00 | 0.00 | 0.00 | 19 | 1012.8 |
| 20260503042832 | 84 | 95 | 1.7 | 2.6 | 0.00 | 0.00 | 0.00 | 19 | 1012.9 |
| 20260503042329 | 84 | 138 | 0.9 | 1.7 | 0.00 | 0.00 | 0.00 | 17 | 1012.8 |
| 20260503041825 | 85 | 286 | 0.0 | 3.5 | 0.00 | 0.00 | 0.00 | 16 | 1012.4 |
| 20260503041322 | 85 | 263 | 1.7 | 3.5 | 0.00 | 0.00 | 0.00 | 16 | 1012.6 |
| 20260503040820 | 86 | 250 | 1.7 | 2.6 | 0.00 | 0.00 | 0.00 | 16 | 1012.8 |
| 20260503040317 | 86 | 260 | 4.3 | 7.0 | 0.00 | 0.00 | 0.00 | 16 | 1012.7 |
| 20260503035814 | 85 | 265 | 4.3 | 6.1 | 0.00 | 0.00 | 0.00 | 17 | 1012.5 |
| 20260503035312 | 86 | 250 | 5.2 | 6.1 | 0.00 | 0.00 | 0.00 | 17 | 1012.6 |